Total_Precipitation_Accumulation
2.00 1.93 1.77 1.76 1.72 1.68 1.62 1.56 1.45 1.34 1.18 1.05 0.92 0.87 0.82 0.77 0.72 0.73 0.71 0.73 0.79 0.82 0.81 0.90 1.03 1.11 1.23 1.31 1.38 1.42 1.51 1.54 1.53 1.43 1.33 1.33 1.28 1.27 1.28 1.14 1.04 0.98 0.95
1.60 1.62 1.63 1.61 1.56 1.45 1.34 1.24 1.14 1.04 0.93 0.87 0.80 0.79 0.76 0.71 0.69 0.68 0.64 0.61 0.61 0.64 0.67 0.74 0.82 0.87 0.97 1.00 1.07 1.15 1.22 1.28 1.33 1.43 1.49 1.41 1.32 1.31 1.23 1.07 0.89 0.78 0.78
1.40 1.39 1.46 1.41 1.34 1.20 1.10 1.07 1.00 0.91 0.86 0.83 0.77 0.71 0.67 0.64 0.59 0.56 0.54 0.50 0.47 0.48 0.53 0.58 0.64 0.69 0.72 0.72 0.76 0.80 0.88 0.99 1.15 1.25 1.34 1.35 1.31 1.30 1.27 1.03 0.86 0.83 0.67
1.31 1.34 1.31 1.23 1.17 1.11 0.97 0.85 0.79 0.75 0.81 0.82 0.70 0.60 0.52 0.48 0.43 0.44 0.47 0.43 0.38 0.38 0.40 0.45 0.49 0.50 0.52 0.54 0.56 0.60 0.68 0.84 1.00 1.09 1.08 1.10 1.13 1.07 1.12 1.04 0.93 0.81 0.68
1.26 1.25 1.18 1.10 1.07 1.03 0.94 0.85 0.75 0.68 0.66 0.66 0.60 0.54 0.47 0.42 0.38 0.39 0.40 0.39 0.36 0.34 0.32 0.33 0.36 0.40 0.43 0.43 0.43 0.51 0.63 0.79 0.89 0.96 0.98 0.92 0.90 0.90 0.91 0.86 0.86 0.82 0.69
1.17 1.14 1.09 1.03 1.02 0.96 0.91 0.86 0.77 0.67 0.62 0.60 0.56 0.53 0.48 0.38 0.37 0.36 0.34 0.38 0.39 0.40 0.35 0.31 0.30 0.30 0.34 0.36 0.39 0.45 0.55 0.64 0.70 0.76 0.81 0.82 0.80 0.78 0.82 0.81 0.81 0.82 0.79
1.16 1.10 1.08 1.04 0.97 0.91 0.77 0.72 0.71 0.67 0.57 0.53 0.49 0.47 0.47 0.42 0.37 0.31 0.32 0.38 0.42 0.43 0.40 0.37 0.31 0.27 0.34 0.36 0.37 0.41 0.45 0.48 0.55 0.65 0.73 0.73 0.72 0.77 0.86 0.87 0.86 0.86 0.81
1.12 1.04 0.95 0.93 0.88 0.81 0.76 0.68 0.63 0.61 0.57 0.55 0.54 0.49 0.45 0.40 0.35 0.31 0.31 0.34 0.43 0.42 0.39 0.39 0.40 0.41 0.38 0.38 0.35 0.37 0.42 0.47 0.52 0.57 0.69 0.70 0.64 0.69 0.82 0.86 0.83 0.80 0.75
0.96 0.88 0.79 0.77 0.84 0.83 0.76 0.71 0.64 0.60 0.57 0.53 0.52 0.47 0.46 0.41 0.36 0.32 0.32 0.34 0.39 0.34 0.31 0.33 0.34 0.37 0.36 0.37 0.37 0.41 0.43 0.47 0.46 0.53 0.58 0.62 0.67 0.70 0.71 0.74 0.82 0.92 0.89
0.85 0.81 0.70 0.67 0.73 0.79 0.73 0.67 0.59 0.55 0.53 0.46 0.45 0.46 0.47 0.45 0.36 0.31 0.32 0.31 0.34 0.30 0.30 0.30 0.31 0.28 0.26 0.27 0.31 0.43 0.53 0.50 0.46 0.51 0.67 0.84 0.90 0.87 0.77 0.78 0.89 0.97 0.96
0.69 0.73 0.72 0.68 0.66 0.65 0.66 0.66 0.60 0.54 0.53 0.51 0.50 0.50 0.48 0.44 0.38 0.33 0.33 0.31 0.31 0.31 0.32 0.32 0.32 0.25 0.21 0.22 0.29 0.40 0.45 0.43 0.49 0.66 0.87 0.98 0.95 0.87 0.77 0.73 0.80 0.90 0.97
0.69 0.75 0.73 0.68 0.57 0.57 0.66 0.68 0.61 0.55 0.51 0.50 0.52 0.53 0.48 0.45 0.39 0.36 0.35 0.33 0.31 0.30 0.32 0.30 0.29 0.26 0.22 0.23 0.26 0.32 0.34 0.42 0.61 0.81 0.92 0.90 0.76 0.65 0.63 0.60 0.62 0.70 0.83
0.70 0.72 0.70 0.65 0.60 0.60 0.64 0.66 0.63 0.57 0.48 0.45 0.48 0.51 0.46 0.40 0.35 0.31 0.31 0.29 0.28 0.28 0.29 0.27 0.26 0.28 0.29 0.36 0.37 0.35 0.41 0.57 0.72 0.81 0.84 0.77 0.67 0.59 0.55 0.55 0.54 0.62 0.67
0.70 0.67 0.65 0.67 0.67 0.61 0.57 0.54 0.51 0.48 0.43 0.41 0.42 0.42 0.38 0.35 0.28 0.22 0.24 0.25 0.25 0.27 0.29 0.32 0.39 0.44 0.45 0.48 0.52 0.56 0.58 0.61 0.62 0.70 0.71 0.65 0.57 0.52 0.51 0.48 0.52 0.58 0.63
0.64 0.59 0.59 0.63 0.62 0.57 0.48 0.41 0.37 0.31 0.23 0.24 0.26 0.26 0.27 0.25 0.20 0.20 0.23 0.24 0.22 0.24 0.26 0.38 0.54 0.59 0.59 0.58 0.56 0.56 0.57 0.56 0.58 0.59 0.57 0.56 0.54 0.50 0.48 0.44 0.45 0.49 0.57
0.57 0.52 0.49 0.50 0.49 0.43 0.39 0.34 0.26 0.18 0.14 0.11 0.11 0.12 0.13 0.16 0.14 0.12 0.15 0.20 0.20 0.23 0.31 0.50 0.59 0.61 0.63 0.57 0.52 0.49 0.47 0.48 0.47 0.47 0.48 0.49 0.50 0.48 0.47 0.44 0.42 0.44 0.50
0.50 0.46 0.40 0.35 0.38 0.36 0.32 0.31 0.33 0.21 0.12 0.08 0.07 0.09 0.11 0.14 0.13 0.12 0.13 0.19 0.22 0.26 0.33 0.45 0.51 0.56 0.56 0.50 0.46 0.45 0.45 0.44 0.41 0.40 0.43 0.44 0.44 0.43 0.43 0.44 0.42 0.42 0.45
0.36 0.30 0.28 0.30 0.30 0.27 0.24 0.22 0.24 0.29 0.26 0.21 0.12 0.08 0.10 0.13 0.14 0.14 0.15 0.22 0.28 0.27 0.32 0.37 0.42 0.45 0.47 0.44 0.41 0.39 0.38 0.36 0.34 0.34 0.36 0.39 0.39 0.38 0.36 0.38 0.38 0.36 0.39
0.29 0.26 0.24 0.23 0.22 0.21 0.18 0.15 0.14 0.17 0.24 0.27 0.24 0.15 0.12 0.14 0.18 0.20 0.19 0.21 0.26 0.28 0.29 0.32 0.34 0.33 0.34 0.35 0.36 0.35 0.32 0.31 0.30 0.30 0.31 0.33 0.34 0.34 0.35 0.31 0.29 0.25 0.29
0.27 0.21 0.18 0.16 0.15 0.14 0.12 0.11 0.12 0.14 0.17 0.22 0.22 0.16 0.15 0.22 0.27 0.25 0.20 0.19 0.20 0.23 0.26 0.29 0.29 0.28 0.27 0.27 0.27 0.26 0.25 0.24 0.22 0.23 0.28 0.32 0.32 0.31 0.30 0.26 0.24 0.26 0.27
0.18 0.15 0.12 0.10 0.11 0.09 0.08 0.07 0.09 0.10 0.14 0.16 0.14 0.10 0.15 0.23 0.29 0.26 0.21 0.19 0.21 0.22 0.25 0.26 0.24 0.23 0.22 0.20 0.20 0.19 0.18 0.19 0.19 0.20 0.24 0.28 0.27 0.25 0.23 0.20 0.17 0.16 0.16
0.15 0.14 0.10 0.07 0.06 0.07 0.06 0.06 0.06 0.08 0.10 0.10 0.10 0.09 0.13 0.18 0.23 0.24 0.22 0.21 0.22 0.23 0.24 0.24 0.23 0.22 0.20 0.19 0.18 0.17 0.17 0.19 0.21 0.23 0.25 0.26 0.24 0.20 0.17 0.16 0.14 0.12 0.11
0.11 0.12 0.11 0.07 0.06 0.05 0.05 0.04 0.03 0.04 0.05 0.07 0.07 0.08 0.10 0.13 0.17 0.23 0.24 0.21 0.21 0.21 0.20 0.19 0.19 0.18 0.16 0.15 0.14 0.14 0.16 0.17 0.18 0.19 0.22 0.22 0.19 0.18 0.16 0.15 0.15 0.14 0.13
0.09 0.09 0.08 0.06 0.06 0.06 0.04 0.03 0.03 0.03 0.04 0.06 0.07 0.09 0.10 0.12 0.14 0.20 0.25 0.24 0.21 0.19 0.17 0.14 0.14 0.14 0.14 0.12 0.11 0.10 0.10 0.10 0.11 0.13 0.17 0.17 0.15 0.15 0.12 0.12 0.12 0.12 0.13
0.07 0.06 0.06 0.05 0.04 0.04 0.03 0.03 0.03 0.03 0.04 0.06 0.07 0.08 0.08 0.07 0.10 0.14 0.20 0.23 0.22 0.19 0.14 0.11 0.10 0.10 0.10 0.10 0.09 0.08 0.09 0.09 0.08 0.10 0.15 0.16 0.12 0.12 0.13 0.14 0.15 0.14 0.13
0.05 0.05 0.04 0.04 0.04 0.03 0.03 0.03 0.04 0.05 0.05 0.05 0.05 0.07 0.06 0.07 0.08 0.10 0.11 0.15 0.19 0.18 0.14 0.11 0.09 0.07 0.07 0.08 0.08 0.07 0.07 0.07 0.07 0.08 0.13 0.16 0.13 0.11 0.11 0.12 0.14 0.16 0.17